Regional Weather Roundup
Issued by NWS Boston, MA

Home | Current Version | Previous Version | Text Only | Print | Product List | Glossary On
Versions: 1 2 3 4 5 6 7 8 9 10 11 12 13 14 15 16 17 18 19 20 21 22 23 24 25 26 27 28 29 30 31 32 33 34 35 36 37 38 39 40 41 42 43 44 45 46 47 48 49 50
000
ASUS41 KBOX 201510
RWRBOX

REGIONAL WEATHER ROUNDUP
NATIONAL WEATHER SERVICE TAUNTON MA
1100 AM EDT THU JUL 20 2017

NOTE:  "FAIR" INDICATES FEW OR NO CLOUDS BELOW 12,000 FEET WITH NO
SIGNIFICANT WEATHER AND/OR OBSTRUCTIONS TO VISIBILITY.

MAZALL-201600-
EASTERN MASSACHUSETTS

CITY           SKY/WX    TMP DP  RH WIND       PRES   REMARKS
BOSTON         PTSUNNY   87  66  49 W8        29.93F
BEVERLY        SUNNY     85  70  60 VRB7      29.93S
LAWRENCE       MOSUNNY   87  68  52 SW8       29.95S HX  90
BEDFORD        MOSUNNY   86  67  52 VRB6      29.93S
BLUE HILL        N/A     84  66  54 SW8       29.96F
NORWOOD        MOSUNNY  N/A N/A N/A SW5       29.93F
MARSHFIELD     MOSUNNY   88  68  51 VRB5      29.93F HX  91
PLYMOUTH       MOSUNNY   86  66  51 W8        29.95F
TAUNTON        MOSUNNY   87  67  51 W5        29.94S HX  90
NEW BEDFORD    SUNNY     87  68  52 W6        29.94F HX  90
$$

MAZALL-201600-
CAPE COD AND THE ISLANDS

CITY           SKY/WX    TMP DP  RH WIND       PRES   REMARKS
FALMOUTH       MOSUNNY   84  66  54 W7        29.96S
HYANNIS        PTSUNNY   84  73  69 SE5       29.93F HX  90
CHATHAM        MOSUNNY   83  74  74 S6        29.96S
PROVINCETOWN   MOSUNNY   84  67  56 W5        29.95F
NANTUCKET      MOSUNNY   82  71  69 SW7       29.96S
MARTHAS VNYRD  PTSUNNY   85  66  53 W3        29.95F
$$

MAZALL-201600-
CENTRAL AND WESTERN MASSACHUSETTS

CITY           SKY/WX    TMP DP  RH WIND       PRES   REMARKS
WORCESTER      PTSUNNY   82  64  54 W9        29.99S
FITCHBURG      CLOUDY    87  67  51 NW8       29.95S HX  90
ORANGE         MOSUNNY   83  68  60 CALM      29.96S
SPRINGFIELD    PTSUNNY   84  67  58 S5        29.95S
WESTFIELD      MOSUNNY   85  71  63 S7        29.95F HX  90
NORTH ADAMS    MOSUNNY   83  69  62 N6        29.98S
PITTSFIELD     MOSUNNY   80  65  59 W13       30.01R
$$

RIZALL-201600-
RHODE ISLAND

CITY           SKY/WX    TMP DP  RH WIND       PRES   REMARKS
PROVIDENCE     PTSUNNY   88  69  53 W8        29.96F HX  92
NEWPORT        SUNNY     85  68  56 VRB3      29.96F
BLOCK ISLAND   MOSUNNY   83  68  60 W10       29.98F
WESTERLY       MOSUNNY   85  64  49 W8        29.98S
$$

CTZALL-201600-
CONNECTICUT

CITY           SKY/WX    TMP DP  RH WIND       PRES   REMARKS
BRADLEY INTL   PTSUNNY   85  68  56 SW7       29.96F
HARTFORD       MOSUNNY  N/A N/A N/A MISG      29.95S
BRIDGEPORT     SUNNY     84  65  52 SW6       29.97S
DANBURY        SUNNY     85  65  51 SW8       30.00F
GROTON         MOSUNNY   83  68  60 SW6       29.96S
NEW HAVEN      SUNNY     85  65  51 S8        29.97S
CHESTER        FAIR      86  66  51 VRB5      29.99S
MERIDEN        MOSUNNY   86  68  54 VRB6      29.96F
WILLIMANTIC    SUNNY     88  67  49 W6        29.97S HX  91
OXFORD         PTSUNNY   82  64  54 W5        30.01F
$$

MEZ002-015-021-024-NHZ003-005-008-011-012-014-VTZ005-008-201600-
NORTHERN NEW ENGLAND

CITY           SKY/WX    TMP DP  RH WIND       PRES   REMARKS
PORTLAND ME    MOSUNNY   83  63  50 E7        29.92S
BANGOR ME      MOSUNNY   81  65  58 NW6       29.90S
CONCORD NH     SUNNY     85  68  56 NW5       29.94S
MANCHESTER NH  PTSUNNY   86  64  47 W8        29.92F
NASHUA NH      PTSUNNY   86  66  51 NW12      29.93F
PORTSMOUTH NH  PTSUNNY   85  67  54 NW7       29.91S
JAFFREY NH     PTSUNNY   83  66  56 VRB7      29.99R
KEENE NH       PTSUNNY   82  69  64 CALM      29.96
BURLINGTON VT  MOSUNNY   81  68  64 CALM      29.93F
MT. WASHINGTON FOG       54  54 100 W12G26      N/A  VSB 0
$$

NYZ052-076-201600-
EASTERN NEW YORK

CITY           SKY/WX    TMP DP  RH WIND       PRES   REMARKS
ALBANY         PTSUNNY   81  67  62 CALM      29.97S
NEW YORK CITY  MOSUNNY   89  73  59 VRB3      29.96F HX  97
$$

ANZALL-201600-
MARINE OBSERVATIONS

STATION/POSITION TIME  TEMP    WIND        PRES    VSBY  WAVE
                       AIR SEA DIR/SP/G                  HT/PER
                 (UTC) (F)     (DEG/KT/KT) (MB)    (MI)  (FT/S)
BOSTON BUOY      1450   76 72  210/  6/  6 1013.2F         1/15
BUZZARDS BAY     1400   73     250/ 10/ 10 1015.1R
NANTUCKET SOUND  1450      73              1014.1F         1/ 5
MASS BAY-STELLWA 1404   70 65  190/  6/  6 1012.7F         1/ 6
ISLE OF SHOALS   1400   77     230/  7/  7 1012.9F
S OF BLOCK IS    1455      74                N/A           3/ 5
$$

......................KEY.........................
  SKY/WX - SKY CONDITION/PRESENT WEATHER
  TMP    - TEMPERATURE IN FAHRENHEIT
  DWPT   - DEWPOINT IN FAHRENHEIT
  RH     - RELATIVE HUMIDITY IN PERCENT
  WIND   - DIRECTION AND SPEED IN MPH
  PRES   - MEAN SEA LEVEL PRESSURE IN INCHES OF HG
  WCI    - WIND CHILL INDEX
  VSB    - VISIBILITY IN MILES
  HX     - HEAT INDEX
  TC     - TEMPERATURE IN CELSIUS
  VRB    - VARIABLE WIND DIRECTION
  N/A    - NOT AVAILABLE



USA.gov is the U.S. government's official web portal to all federal, state and local government web resources and services.